Regional Weather Roundup
Issued by NWS

Home | Current Version | Previous Version | Text Only | Print | Product List | Glossary Off
Versions: 1 2 3 4 5 6 7 8 9 10 11 12 13 14 15 16 17 18 19 20 21 22 23 24 25 26 27 28 29 30 31 32 33 34 35 36 37 38 39 40 41 42 43 44 45 46 47 48 49 50

000
ASUS43 KMKX 231411
RWRWI

WISCONSIN REGIONAL WEATHER ROUNDUP
NATIONAL WEATHER SERVICE MILWAUKEE/SULLIVAN WI
900 AM CDT TUE SEP 23 2014

NOTE: "FAIR" INDICATES FEW OR NO CLOUDS BELOW 12,000 FEET WITH NO
SIGNIFICANT WEATHER AND/OR OBSTRUCTIONS TO VISIBILITY.

WIZ001-002-006>008-014>016-023>028-231500-
NORTHWEST WISCONSIN

CITY           SKY/WX    TMP DP  RH WIND       PRES   REMARKS
SUPERIOR ARPT  SUNNY     54  52  92 SW3       30.22R
ASHLAND        SUNNY     59  52  77 S6        30.23R
HAYWARD        SUNNY     54  50  86 CALM      30.24S
SIREN          SUNNY     56  52  86 SE5       30.22S
CUMBERLAND     SUNNY     52  50  93 CALM      30.25R
RICE LAKE      SUNNY     51  50  96 CALM      30.26S
CHETEK         SUNNY     52  51  93 CALM      30.26R
LADYSMITH      SUNNY     54  51  92 CALM      30.28R
EAU CLAIRE     SUNNY     54  51  90 CALM      30.26R
MENOMONIE      SUNNY     52  52  99 SE3       30.26R
NEW RICHMOND   SUNNY     56  52  84 CALM      30.24R
OSCEOLA        SUNNY     57  53  87 SE5       30.26R
$$

WIZ003>005-009-010-017-018-231500-
NORTH CENTRAL WISCONSIN

CITY           SKY/WX    TMP DP  RH WIND       PRES   REMARKS
MANITOWISH WTR SUNNY     53  51  95 CALM      30.26S
ARBOR VITAE    SUNNY     56  53  89 CALM      30.26S
WOODRUFF       SUNNY     56  53  89 CALM      30.26S
RHINELANDER    SUNNY     56  51  84 SW3       30.28R
EAGLE RIVER    SUNNY     53  53 100 CALM      30.26S
LAND O LAKES   SUNNY     55  53  96 CALM      30.27S
PHILLIPS       SUNNY     54  51  88 CALM      30.26S
TOMAHAWK       SUNNY     52  51  97 CALM      30.28R
MEDFORD        SUNNY     54  52  92 CALM      30.27S
MERRILL        SUNNY     49  49  97 CALM      30.28R
$$

WIZ029-030-035-036-043>047-231500-
CENTRAL WISCONSIN

CITY           SKY/WX    TMP DP  RH WIND       PRES   REMARKS
WAUSAU         SUNNY     53  49  86 CALM      30.27R
MOSINEE        SUNNY     52  52 100 CALM      30.29R
MARSHFIELD     SUNNY     54  52  93 SW3       30.27S
STEVENS POINT  SUNNY     52  50  92 CALM      30.29S
WAUPACA        SUNNY     55  54  97 CALM      30.29S
WAUTOMA        SUNNY     55  50  83 CALM      30.30R
WISC RAPIDS    SUNNY     54  52  93 S5        30.30R
CAMP DOUGLAS   SUNNY     55  55 100 SE3       30.29R
$$

WIZ011>013-019>022-031-037>040-048>050-231500-
NORTHEAST WISCONSIN

CITY           SKY/WX    TMP DP  RH WIND       PRES   REMARKS
ANTIGO         SUNNY     54  51  92 CALM      30.29R
SHAWANO        SUNNY     56  52  87 CALM      30.28S
OCONTO         SUNNY     57  53  86 SW6       30.27R
STURGEON BAY   SUNNY     59  52  77 W8        30.27S
GREEN BAY      SUNNY     57  53  86 VRB3      30.29R
MANITOWOC      SUNNY     60  54  80 W6        30.29R
APPLETON       SUNNY     57  54  88 CALM      30.29S
CLINTONVILLE   SUNNY     54  52  94 CALM      30.28S
OSHKOSH        SUNNY     58  52  80 W5        30.29R
$$

WIZ032>034-041-042-053>061-231500-
SOUTHWEST WISCONSIN

CITY           SKY/WX    TMP DP  RH WIND       PRES   REMARKS
LA CROSSE      PTSUNNY   53  52  96 SE6       30.29R
SPARTA         SUNNY     50  49  97 CALM      30.30R
VIROQUA        SUNNY     58  50  76 SW5       30.30R
BOSCOBEL       FOG       49  48  97 CALM      30.32R VSB<1/4
PRAIRIE DU CHI SUNNY     51  49  93 CALM      30.31R
PLATTEVILLE    SUNNY     56  50  79 CALM      30.33R
$$

WIZ056-057-062-063-064-067-068-231500-
SOUTH CENTRAL WISCONSIN

CITY           SKY/WX    TMP DP  RH WIND       PRES   REMARKS
REEDSBURG      SUNNY     53  49  87 CALM      30.31R
BARABOO/DELLS  SUNNY     58  49  70 SW6       30.30R
LONE ROCK      MOSUNNY   54  48  80 E3        30.32R
MINERAL POINT  SUNNY     55  48  76 S3        30.32R
MADISON        SUNNY     59  52  77 S3        30.31R
MIDDLETON      SUNNY     59  51  73 CALM      30.32R
WATERTOWN      SUNNY     56  51  85 SW5       30.31R
MONROE         SUNNY     59  50  72 S6        30.32R
JANESVILLE     SUNNY     55  48  76 CALM      30.32R
$$

WIZ051-052-058>065-066-070>072-231500-
SOUTHEAST WISCONSIN

CITY           SKY/WX    TMP DP  RH WIND       PRES   REMARKS
MILWAUKEE      SUNNY     60  46  59 W7        30.32R
WAUKESHA       SUNNY     55  48  76 SW3       30.33R
MILWAUKEE/TIMM SUNNY     57  48  72 CALM      30.31S
RACINE         SUNNY     59  48  67 W7        30.33R
BURLINGTON     SUNNY     55  50  83 SW3       30.32R
KENOSHA        SUNNY     58  50  75 W8        30.33R
FOND DU LAC    SUNNY     56  50  80 SW3       30.30R
SHEBOYGAN      SUNNY     59  52  77 W3        30.29S
WEST BEND      SUNNY     57  50  77 CALM      30.30S
JUNEAU         SUNNY     54  49  83 CALM      30.31S
$$

LSZ147-162-231500-
LAKE SUPERIOR

STATION/POSITION TIME  TEMP    WIND        PRES    WAVE
                       AIR SEA DIR/SP/G            HT/PER
                 (UTC) (F)     (DEG/KT/KT) (MB)    (FT/S)
W MID LAKE BUOY  1350   51 48  230/  8/  8 1022.7R   1/ 3
DEVILS ISLAND    1400   58     220/  8/ 10 1023.0R
PORT WING        1300   54     160/  4/  5 1023.0R
SAXON HARBOR     1300   55     190/  6/  9 1023.0S
$$

LMZ867-665-643>646-231500-
LAKE MICHIGAN

STATION/POSITION TIME  TEMP    WIND        PRES    WAVE
                       AIR SEA DIR/SP/G            HT/PER
                 (UTC) (F)     (DEG/KT/KT) (MB)    (FT/S)
CHAMBERS ISLAND  1300   58     190/  5/ 11 1024.0R
S GREEN BAY BUOY 1400   57                 1025.9
N MID LAKE BUOY  1350   57 57  250/ 10/ 12 1024.0R   2/ 4
NORTHPORT PIER   1300   61     280/  6/ 11 1023.7R
SISTER BAY       1257          280/  9/ 10   N/A
ALGOMA LAKESHORE 1340          330/  8/ 11   N/A
KEWAUNEE LAKESHO 1300   54     290/  7/  8 1023.6R
SHEBOYGAN LAKESH 1400   60 54  280/  1/  2 1026.0R
PORT WASHINGTON  1340   60     290/  7/ 10 1026.1R
ATWATER BUOY     1400   59     250/ 10/ 12 1026.9
S MID LAKE BUOY  1350   61 61  240/ 12/ 12 1026.9R   2/ 4
KENOSHA   LAKESH 1400   59     250/  8/ 12 1026.8R
$$

TC  - TEMPERATURE IN CELSIUS
VSB - VISIBILITY IN STATUTE MILES
WCI - WIND CHILL INDEX
HX  - HEAT INDEX




USA.gov is the U.S. government's official web portal to all federal, state and local government web resources and services.